Vorticity
6 6 6 6 6 6 7 7 6 6 6 6 7 8 8 7 7 7 7 7 6 6 6 6 7 6 6 4 14 7 14 0 8 11 10 8 9 9 7 8 7 8 12 8 8 8 7
5 5 6 6 6 6 6 6 6 6 6 6 6 6 6 7 7 7 7 6 6 6 6 6 6 6 7 4 4 16 3 -4 11 17 10 9 8 7 11 8 10 4 8 10 10 11 10
5 5 5 5 6 5 6 6 6 6 6 6 6 6 6 5 5 5 5 6 6 6 7 7 9 9 7 8 17 3 -1 10 12 18 9 7 7 10 7 12 1 5 7 9 17 18 13
5 5 5 5 5 6 6 6 7 7 7 6 6 6 6 6 6 6 7 7 7 8 9 9 9 9 12 18 2 -4 14 16 20 12 8 6 5 8 9 7 8 12 20 11 -2 2 2
5 5 5 5 5 5 4 4 4 5 5 6 6 6 7 6 6 7 7 7 7 7 6 7 7 11 24 -2 0 20 26 23 12 8 4 4 2 0 15 11 21 6 4 0 7 9 5
4 5 5 5 5 5 5 5 5 4 4 5 5 5 5 5 6 5 5 4 6 5 8 7 16 23 -1 13 23 28 21 11 6 4 5 6 6 20 4 7 1 -8 2 2 2 -7 -4
5 4 4 5 5 5 5 4 5 5 5 6 5 6 6 6 5 6 6 6 6 11 4 3 10 10 23 30 29 12 9 -3 0 4 6 3 3 0 11 4 5 6 7 5 13 16 10
4 4 5 5 4 5 6 6 5 4 5 5 6 5 5 5 5 6 8 8 10 5 10 11 16 29 25 10 8 1 -12 -11 -4 3 2 7 27 2 1 10 10 11 8 11 13 24 1
6 6 6 6 5 5 5 5 5 4 5 6 5 4 6 7 5 6 5 6 8 8 17 23 20 18 13 12 4 -5 -4 -1 5 6 5 17 15 12 11 5 6 12 7 8 8 9 9
2 3 5 3 3 0 4 3 6 7 6 6 6 15 11 6 15 8 7 8 9 11 43 19 1 7 -1 15 -6 2 -7 -6 12 7 19 14 -9 3 5 4 14 4 13 8 7 16 10
3 10 3 8 7 -1 12 5 1 11 1 9 8 9 -4 3 11 2 10 13 -2 24 19 7 14 17 2 3 2 -13 -1 14 16 11 7 -10 14 12 12 16 7 -5 10 7 10 14 16
10 5 5 2 9 10 2 7 10 2 5 8 -2 -0 11 4 5 10 -2 1 9 25 12 4 4 3 1 -13 4 14 8 20 6 2 9 26 10 8 -8 20 14 4 12 21 18 12 24
19 11 9 17 19 18 8 10 -6 9 10 2 4 14 12 7 6 7 13 12 41 12 1 14 13 -16 -25 7 13 18 -2 4 -3 34 -1 -5 37 24 10 15 20 17 11 14 14 12 -3
0 -5 -4 -4 -9 -1 -3 7 6 11 9 3 4 6 3 5 11 15 20 1 15 8 2 -27 -10 2 18 18 12 5 4 8 20 23 8 25 13 16 1 6 -1 5 7 -9 10 7 -2
5 -6 -2 -6 -4 -4 9 -5 -3 4 -11 -2 1 3 3 8 13 17 -3 13 -29 -7 24 21 14 16 55 -17 9 8 30 24 11 6 -2 4 19 2 3 -8 10 10 8 12 -1 15 18
12 15 14 16 6 5 9 9 7 9 5 -0 6 13 7 16 7 3 3 -2 -17 -9 0 14 -6 -2 -7 -8 4 29 21 -3 15 10 12 8 16 21 8 11 9 8 2 11 14 8 12
5 2 8 13 18 20 6 12 17 7 6 9 7 12 8 15 11 -4 10 6 12 5 10 10 15 12 11 -24 13 1 -7 -14 -4 21 6 2 24 -15 -1 0 4 14 12 -4 3 -8 2
8 9 8 0 2 6 14 14 11 13 16 16 15 15 6 3 17 10 7 4 20 2 28 10 4 18 11 13 13 -3 10 -4 -15 -3 2 7 4 3 -12 5 13 16 7 11 -12 21 6
21 14 -0 9 10 1 -7 5 10 10 14 17 9 12 9 9 2 6 17 14 16 14 1 12 27 -8 -10 28 8 12 5 12 21 18 9 13 16 24 28 27 31 14 13 11 12 14 2
11 13 14 15 19 13 20 23 -3 10 13 14 14 12 16 9 9 11 4 8 4 16 3 -4 -11 21 6 12 -21 4 16 10 -3 3 22 15 8 -30 -44 -30 -5 -22 -20 -4 10 17 11
14 13 14 10 9 13 13 10 12 22 13 12 14 10 4 -14 7 25 30 4 7 23 28 11 10 32 5 10 10 18 32 6 10 11 6 5 3 10 11 9 8 7 5 7 10 11 -3
13 12 16 15 11 9 9 8 14 12 14 8 -0 7 7 6 9 12 14 10 9 10 6 3 10 14 14 9 4 -26 -4 3 21 9 11 10 1 15 9 16 15 14 15 20 17 15 3
21 14 13 10 14 15 13 6 10 15 10 8 7 -6 6 7 10 10 3 7 12 22 13 18 21 19 10 9 11 15 7 5 3 -3 14 17 9 16 21 26 11 42 46 43 40 53 38
2 14 18 14 10 8 18 18 10 10 9 9 3 17 -6 -2 5 4 6 10 6 8 7 6 10 8 3 8 11 15 10 15 12 14 9 -7 16 7 -1 13 21 24 5 17 15 19 17
3 6 10 20 15 11 5 14 21 12 14 12 10 8 -21 12 -8 7 13 -9 10 6 2 5 10 11 13 3 6 30 21 31 18 23 19 18 5 -16 -1 8 -34 -3 -15 -12 -13 1 -12
5 3 3 8 22 15 12 6 10 17 15 17 6 9 3 -3 -6 14 3 -0 10 1 3 7 7 17 20 12 13 -1 -7 -5 15 12 35 43 37 -12 -10 -1 -2 11 -8 -6 7 -0 8
19 5 7 4 15 29 10 10 7 14 8 23 8 8 10 12 2 5 9 7 2 15 7 0 12 5 20 13 19 16 3 -4 4 2 6 13 17 14 20 -9 25 2 -8 16 33 -8 16
19 9 8 3 9 34 8 2 8 3 3 12 14 8 8 -2 9 -7 21 20 5 -3 33 -25 13 7 20 26 8 6 10 -2 22 -2 -1 9 8 16 32 12 23 10 13 6 -5 3 8
11 17 12 3 4 36 10 6 -4 16 4 11 30 11 6 13 -6 7 5 15 21 2 -2 14 15 -1 -22 12 43 21 3 -4 9 -0 33 13 -12 -8 -13 -1 -3 -6 -1 4 12 15 20
Height
3170 3171 3172 3172 3172 3172 3172 3172 3172 3173 3172 3170 3170 3170 3169 3169 3168 3166 3165 3163 3162 3161 3158 3156 3155 3153 3151 3149 3148 3145 3143 3142 3140 3138 3136 3134 3133 3132 3131 3131 3130 3128 3129 3128 3128 3127 3127
3168 3169 3170 3170 3170 3170 3171 3171 3170 3170 3170 3169 3168 3168 3168 3167 3166 3164 3163 3161 3160 3158 3156 3154 3152 3150 3149 3147 3144 3142 3141 3139 3138 3137 3134 3133 3132 3131 3130 3129 3129 3128 3126 3125 3125 3124 3123
3166 3167 3167 3168 3168 3168 3169 3169 3168 3169 3168 3168 3168 3167 3166 3165 3164 3163 3161 3160 3158 3156 3153 3151 3150 3148 3145 3144 3141 3139 3138 3136 3136 3135 3134 3132 3131 3130 3129 3128 3127 3125 3124 3123 3122 3121 3120
3164 3164 3165 3165 3165 3166 3166 3166 3166 3166 3166 3166 3165 3165 3165 3164 3162 3160 3159 3157 3156 3154 3152 3149 3147 3145 3142 3141 3139 3136 3135 3133 3133 3133 3132 3131 3130 3130 3128 3126 3124 3123 3122 3120 3120 3118 3118
3161 3162 3162 3163 3163 3163 3163 3163 3162 3163 3163 3164 3163 3163 3162 3161 3160 3159 3157 3155 3153 3152 3150 3146 3144 3142 3140 3138 3136 3133 3132 3131 3131 3132 3131 3131 3130 3129 3127 3125 3123 3121 3119 3118 3118 3116 3115
3157 3158 3159 3160 3161 3161 3160 3160 3160 3160 3161 3162 3161 3161 3160 3158 3157 3155 3154 3153 3151 3150 3148 3144 3141 3141 3137 3134 3131 3130 3130 3130 3131 3131 3131 3130 3127 3124 3123 3123 3123 3121 3119 3117 3115 3115 3112
3153 3153 3155 3156 3157 3157 3158 3158 3158 3158 3158 3158 3157 3157 3156 3155 3152 3151 3151 3149 3150 3148 3145 3143 3139 3136 3133 3131 3130 3130 3130 3130 3130 3129 3127 3126 3125 3123 3120 3118 3118 3116 3114 3112 3111 3111 3107
3147 3148 3150 3151 3151 3152 3153 3154 3154 3155 3155 3154 3154 3153 3152 3150 3149 3146 3145 3143 3142 3142 3138 3136 3134 3130 3129 3129 3130 3130 3130 3131 3129 3126 3124 3124 3121 3119 3118 3118 3116 3113 3110 3108 3106 3103 3102
3140 3142 3143 3145 3146 3148 3149 3150 3150 3151 3151 3151 3150 3150 3149 3147 3147 3145 3142 3140 3138 3136 3137 3134 3130 3130 3130 3131 3128 3129 3129 3127 3126 3125 3122 3120 3119 3117 3116 3113 3112 3111 3107 3105 3103 3100 3099
3133 3135 3136 3138 3140 3142 3143 3144 3145 3146 3146 3146 3146 3145 3144 3144 3145 3141 3141 3139 3135 3134 3133 3133 3130 3130 3131 3130 3130 3128 3126 3127 3123 3120 3118 3116 3116 3113 3112 3111 3109 3107 3106 3103 3101 3097 3096
3125 3127 3130 3132 3133 3135 3137 3138 3139 3139 3140 3141 3141 3142 3141 3140 3140 3138 3137 3135 3134 3131 3131 3130 3129 3129 3130 3131 3128 3126 3126 3122 3120 3118 3118 3115 3111 3109 3106 3106 3104 3104 3102 3101 3099 3097 3092
3117 3118 3121 3123 3126 3128 3129 3130 3133 3134 3134 3135 3135 3136 3135 3136 3136 3134 3132 3132 3133 3136 3127 3126 3125 3125 3127 3125 3125 3123 3121 3121 3119 3117 3114 3112 3110 3107 3105 3103 3100 3099 3099 3098 3093 3092 3092
3106 3109 3112 3114 3116 3118 3121 3124 3125 3126 3127 3127 3129 3129 3129 3130 3132 3130 3128 3128 3133 3131 3128 3125 3124 3123 3123 3123 3120 3119 3119 3119 3117 3110 3110 3109 3106 3103 3105 3102 3100 3096 3097 3097 3098 3095 3089
3097 3099 3102 3105 3108 3111 3114 3115 3118 3119 3120 3121 3122 3123 3122 3124 3124 3125 3124 3124 3125 3124 3125 3123 3121 3119 3118 3119 3117 3113 3111 3110 3113 3111 3107 3105 3099 3100 3099 3099 3101 3099 3096 3097 3101 3094 3086
3084 3089 3092 3095 3098 3101 3103 3105 3109 3112 3113 3113 3113 3115 3115 3117 3117 3119 3120 3118 3117 3120 3119 3118 3116 3113 3113 3114 3114 3112 3107 3105 3102 3104 3104 3103 3099 3100 3100 3096 3098 3095 3095 3095 3092 3090 3087
3075 3077 3081 3085 3087 3091 3093 3096 3099 3101 3105 3106 3106 3105 3106 3109 3111 3112 3111 3105 3108 3113 3114 3113 3111 3110 3108 3107 3106 3107 3104 3105 3102 3103 3100 3097 3093 3093 3095 3094 3094 3093 3093 3093 3092 3094 3089
3065 3067 3069 3074 3078 3080 3083 3086 3089 3092 3095 3097 3098 3097 3095 3101 3103 3101 3099 3098 3098 3102 3106 3107 3103 3104 3102 3103 3101 3099 3096 3099 3098 3098 3097 3095 3092 3090 3089 3087 3089 3088 3088 3088 3088 3088 3086
3053 3056 3059 3062 3067 3070 3072 3073 3078 3080 3083 3085 3087 3086 3085 3090 3094 3089 3089 3092 3093 3094 3097 3096 3097 3094 3095 3095 3096 3094 3091 3092 3090 3093 3092 3092 3087 3082 3084 3081 3080 3081 3081 3084 3084 3082 3080
3041 3045 3048 3051 3054 3059 3063 3065 3068 3069 3072 3076 3073 3076 3074 3078 3079 3080 3082 3083 3083 3085 3087 3089 3088 3087 3088 3089 3090 3085 3085 3084 3086 3086 3083 3085 3082 3080 3078 3076 3075 3074 3073 3077 3076 3076 3070
3031 3033 3037 3040 3042 3047 3051 3057 3059 3062 3064 3067 3067 3066 3063 3062 3063 3068 3073 3074 3075 3077 3079 3078 3079 3080 3080 3077 3080 3079 3078 3077 3079 3081 3081 3076 3074 3075 3070 3072 3071 3070 3068 3069 3072 3065 3062
3020 3023 3025 3029 3034 3035 3039 3046 3050 3050 3054 3059 3057 3053 3054 3056 3053 3057 3061 3065 3067 3071 3072 3070 3067 3070 3074 3072 3071 3069 3071 3072 3071 3071 3074 3074 3065 3069 3063 3063 3065 3059 3058 3059 3061 3057 3055
3009 3012 3014 3018 3021 3026 3028 3033 3037 3042 3044 3045 3049 3049 3049 3049 3050 3052 3049 3050 3056 3061 3065 3066 3062 3063 3065 3064 3065 3065 3065 3066 3063 3063 3065 3065 3061 3060 3054 3055 3055 3049 3048 3046 3047 3045 3042
2994 3000 3002 3007 3011 3014 3018 3021 3026 3032 3035 3036 3037 3037 3041 3042 3042 3045 3041 3046 3048 3050 3051 3055 3057 3057 3055 3056 3058 3057 3058 3056 3055 3055 3056 3057 3056 3056 3047 3048 3048 3039 3034 3033 3033 3035 3036
2984 2987 2990 2994 3001 3004 3007 3010 3013 3017 3022 3026 3028 3032 3032 3032 3033 3035 3037 3039 3044 3044 3044 3047 3050 3048 3049 3050 3050 3049 3048 3047 3047 3048 3050 3049 3049 3049 3044 3045 3042 3030 3028 3028 3028 3029 3030
2973 2977 2982 2980 2987 2994 2997 3000 3004 3004 3008 3016 3018 3022 3022 3024 3026 3026 3030 3033 3034 3036 3037 3039 3042 3041 3040 3043 3044 3041 3038 3037 3036 3038 3039 3042 3044 3041 3040 3038 3030 3025 3026 3024 3024 3025 3026
2963 2965 2973 2975 2972 2983 2987 2990 2993 2995 2998 3002 3007 3012 3015 3016 3012 3021 3021 3024 3028 3029 3031 3032 3034 3034 3034 3034 3035 3033 3032 3030 3031 3030 3029 3034 3036 3037 3035 3033 3027 3019 3019 3020 3020 3018 3019
2950 2954 2961 2965 2966 2969 2975 2978 2982 2985 2989 2990 2995 3001 3005 3005 3006 3012 3011 3015 3019 3023 3024 3024 3025 3027 3026 3025 3025 3025 3024 3024 3023 3023 3025 3027 3027 3025 3025 3025 3018 3015 3015 3016 3019 3017 3014
2938 2945 2948 2951 2957 2958 2963 2967 2971 2975 2979 2981 2986 2992 2995 2995 3000 3001 3004 3004 3009 3013 3016 3016 3019 3015 3018 3019 3017 3016 3016 3016 3013 3015 3017 3018 3020 3018 3019 3017 3013 3010 3010 3013 3011 3009 3010
2928 2932 2936 2939 2943 2947 2951 2955 2959 2963 2968 2971 2975 2980 2986 2988 2990 2991 2995 2997 2999 3002 3006 3006 3004 3007 3010 3011 3009 3008 3009 3008 3005 3007 3008 3010 3009 3010 3012 3007 3005 3004 3005 3004 3004 3004 3004